Location: B�hl
(48.6968°N, 8.1352°E)
Time: 03:13:15
(UTC+00:00)

ERBS - Pass Details

Date: 08 March 2021
Orbit: 407 x 412 km, 57.0° (Epoch: 17 April)

Event Time Altitude Azimuth Distance (km) Brightness Sun altitude
Rises 19:37:37 0° 302° (WNW) 2,358 7.4 -22.8°
Reaches altitude 10° 19:40:01 10° 318° (NW) 1,493 5.9 -23.2°
Enters shadow 19:42:05 21° 355° (N) 986 4.3 -23.5°
